Year,Month,Day,Hour,Minute,Value (Times are PST for temperature in C)
2020,03,15,00,00,-2.90
2020,03,15,00,01,-3.00
2020,03,15,00,02,-3.00
2020,03,15,00,03,-3.00
2020,03,15,00,04,-3.00
2020,03,15,00,05,-3.10
2020,03,15,00,06,-3.00
2020,03,15,00,07,-3.10
2020,03,15,00,08,-3.10
2020,03,15,00,09,-3.10
2020,03,15,00,10,-3.10
2020,03,15,00,11,-3.10
2020,03,15,00,12,-3.10
2020,03,15,00,13,-3.10
2020,03,15,00,14,-3.10
2020,03,15,00,15,-3.10
2020,03,15,00,16,-3.00
2020,03,15,00,17,-3.00
2020,03,15,00,18,-3.00
2020,03,15,00,19,-2.90
2020,03,15,00,20,-2.90
2020,03,15,00,21,-2.90
2020,03,15,00,22,-2.90
2020,03,15,00,23,-2.90
2020,03,15,00,24,-2.90
2020,03,15,00,25,-2.90
2020,03,15,00,26,-2.90
2020,03,15,00,27,-2.90
2020,03,15,00,28,-2.90
2020,03,15,00,29,-3.00
2020,03,15,00,30,-3.00
2020,03,15,00,31,-3.10
2020,03,15,00,32,-3.10
2020,03,15,00,33,-3.10
2020,03,15,00,34,-3.10
2020,03,15,00,35,-3.10
2020,03,15,00,36,-3.20
2020,03,15,00,37,-3.20
2020,03,15,00,38,-3.20
2020,03,15,00,39,-3.30
2020,03,15,00,40,-3.30
2020,03,15,00,41,-3.30
2020,03,15,00,42,-3.30
2020,03,15,00,43,-3.30
2020,03,15,00,44,-3.30
2020,03,15,00,45,-3.30
2020,03,15,00,46,-3.30
2020,03,15,00,47,-3.30
2020,03,15,00,48,-3.30
2020,03,15,00,49,-3.30
2020,03,15,00,50,-3.30
2020,03,15,00,51,-3.30
2020,03,15,00,52,-3.30
2020,03,15,00,53,-3.30
2020,03,15,00,54,-3.30
2020,03,15,00,55,-3.30
2020,03,15,00,56,-3.30
2020,03,15,00,57,-3.30
2020,03,15,00,58,-3.30
2020,03,15,00,59,-3.30
2020,03,15,01,00,-3.30
2020,03,15,01,01,-3.30
2020,03,15,01,02,-3.30
2020,03,15,01,03,-3.30
2020,03,15,01,04,-3.30
2020,03,15,01,05,-3.30
2020,03,15,01,06,-3.30
2020,03,15,01,07,-3.20
2020,03,15,01,08,-3.20
2020,03,15,01,09,-3.20
2020,03,15,01,10,-3.10
2020,03,15,01,11,-3.10
2020,03,15,01,12,-3.10
2020,03,15,01,13,-3.10
2020,03,15,01,14,-3.10
2020,03,15,01,15,-3.10
2020,03,15,01,16,-3.10
2020,03,15,01,17,-3.20
2020,03,15,01,18,-3.20
2020,03,15,01,19,-3.20
2020,03,15,01,20,-3.20
2020,03,15,01,21,-3.30
2020,03,15,01,22,-3.30
2020,03,15,01,23,-3.30
2020,03,15,01,24,-3.30
2020,03,15,01,25,-3.30
2020,03,15,01,26,-3.30
2020,03,15,01,27,-3.30
2020,03,15,01,28,-3.30
2020,03,15,01,29,-3.30
2020,03,15,01,30,-3.30
2020,03,15,01,31,-3.40
2020,03,15,01,32,-3.40
2020,03,15,01,33,-3.40
2020,03,15,01,34,-3.50
2020,03,15,01,35,-3.50
2020,03,15,01,36,-3.50
2020,03,15,01,37,-3.60
2020,03,15,01,38,-3.60
2020,03,15,01,39,-3.60
2020,03,15,01,40,-3.70
2020,03,15,01,41,-3.70
2020,03,15,01,42,-3.70
2020,03,15,01,43,-3.70
2020,03,15,01,44,-3.70
2020,03,15,01,45,-3.70
2020,03,15,01,46,-3.80
2020,03,15,01,47,-3.80
2020,03,15,01,48,-3.80
2020,03,15,01,49,-3.80
2020,03,15,01,50,-3.80
2020,03,15,01,51,-3.80
2020,03,15,01,52,-3.80
2020,03,15,01,53,-3.80
2020,03,15,01,54,-3.80
2020,03,15,01,55,-3.80
2020,03,15,01,56,-3.80
2020,03,15,01,57,-3.80
2020,03,15,01,58,-3.70
2020,03,15,01,59,-3.80
2020,03,15,02,00,-3.80
2020,03,15,02,01,-3.80
2020,03,15,02,02,-3.80
2020,03,15,02,03,-3.70
2020,03,15,02,04,-3.70
2020,03,15,02,05,-3.60
2020,03,15,02,06,-3.60
2020,03,15,02,07,-3.60
2020,03,15,02,08,-3.60
2020,03,15,02,09,-3.60
2020,03,15,02,10,-3.70
2020,03,15,02,11,-3.70
2020,03,15,02,12,-3.70
2020,03,15,02,13,-3.70
2020,03,15,02,14,-3.70
2020,03,15,02,15,-3.70
2020,03,15,02,16,-3.70
2020,03,15,02,17,-3.70
2020,03,15,02,18,-3.80
2020,03,15,02,19,-3.80
2020,03,15,02,20,-3.80
2020,03,15,02,21,-3.90
2020,03,15,02,22,-3.90
2020,03,15,02,23,-3.90
2020,03,15,02,24,-3.90
2020,03,15,02,25,-3.90
2020,03,15,02,26,-3.90
2020,03,15,02,27,-3.90
2020,03,15,02,28,-4.00
2020,03,15,02,29,-4.00
2020,03,15,02,30,-3.90
2020,03,15,02,31,-3.90
2020,03,15,02,32,-3.90
2020,03,15,02,33,-3.80
2020,03,15,02,34,-3.80
2020,03,15,02,35,-3.80
2020,03,15,02,36,-3.80
2020,03,15,02,37,-3.80
2020,03,15,02,38,-3.70
2020,03,15,02,39,-3.70
2020,03,15,02,40,-3.70
2020,03,15,02,41,-3.70
2020,03,15,02,42,-3.70
2020,03,15,02,43,-3.80
2020,03,15,02,44,-3.80
2020,03,15,02,45,-3.80
2020,03,15,02,46,-3.80
2020,03,15,02,47,-3.80
2020,03,15,02,48,-3.80
2020,03,15,02,49,-3.80
2020,03,15,02,50,-3.70
2020,03,15,02,51,-3.70
2020,03,15,02,52,-3.70
2020,03,15,02,53,-3.70
2020,03,15,02,54,-3.70
2020,03,15,02,55,-3.70
2020,03,15,02,56,-3.70
2020,03,15,02,57,-3.70
2020,03,15,02,58,-3.60
2020,03,15,02,59,-3.50
2020,03,15,03,00,-3.50
2020,03,15,03,01,-3.40
2020,03,15,03,02,-3.30
2020,03,15,03,03,-3.30
2020,03,15,03,04,-3.30
2020,03,15,03,05,-3.20
2020,03,15,03,06,-3.20
2020,03,15,03,07,-3.20
2020,03,15,03,08,-3.20
2020,03,15,03,09,-3.20
2020,03,15,03,10,-3.20
2020,03,15,03,11,-3.10
2020,03,15,03,12,-3.10
2020,03,15,03,13,-3.10
2020,03,15,03,14,-3.10
2020,03,15,03,15,-3.10
2020,03,15,03,16,-3.10
2020,03,15,03,17,-3.10
2020,03,15,03,18,-3.10
2020,03,15,03,19,-3.10
2020,03,15,03,20,-3.10
2020,03,15,03,21,-3.00
2020,03,15,03,22,-3.00
2020,03,15,03,23,-3.00
2020,03,15,03,24,-3.00
2020,03,15,03,25,-3.00
2020,03,15,03,26,-3.00
2020,03,15,03,27,-3.10
2020,03,15,03,28,-3.10
2020,03,15,03,29,-3.10
2020,03,15,03,30,-3.10
2020,03,15,03,31,-3.10
2020,03,15,03,32,-3.00
2020,03,15,03,33,-3.00
2020,03,15,03,34,-3.00
2020,03,15,03,35,-3.00
2020,03,15,03,36,-3.10
2020,03,15,03,37,-3.10
2020,03,15,03,38,-3.10
2020,03,15,03,39,-3.20
2020,03,15,03,40,-3.20
2020,03,15,03,41,-3.20
2020,03,15,03,42,-3.20
2020,03,15,03,43,-3.10
2020,03,15,03,44,-3.10
2020,03,15,03,45,-3.10
2020,03,15,03,46,-3.00
2020,03,15,03,47,-3.00
2020,03,15,03,48,-3.00
2020,03,15,03,49,-2.90
2020,03,15,03,50,-2.90
2020,03,15,03,51,-2.90
2020,03,15,03,52,-2.90
2020,03,15,03,53,-3.00
2020,03,15,03,54,-3.00
2020,03,15,03,55,-3.10
2020,03,15,03,56,-3.20
2020,03,15,03,57,-3.20
2020,03,15,03,58,-3.30
2020,03,15,03,59,-3.40
2020,03,15,04,00,-3.50
2020,03,15,04,01,-3.50
2020,03,15,04,02,-3.60
2020,03,15,04,03,-3.60
2020,03,15,04,04,-3.60
2020,03,15,04,05,-3.60
2020,03,15,04,06,-3.60
2020,03,15,04,07,-3.60
2020,03,15,04,08,-3.60
2020,03,15,04,09,-3.60
2020,03,15,04,10,-3.60
2020,03,15,04,11,-3.50
2020,03,15,04,12,-3.50
2020,03,15,04,13,-3.40
2020,03,15,04,14,-3.40
2020,03,15,04,15,-3.40
2020,03,15,04,16,-3.40
2020,03,15,04,17,-3.40
2020,03,15,04,18,-3.40
2020,03,15,04,19,-3.40
2020,03,15,04,20,-3.40
2020,03,15,04,21,-3.40
2020,03,15,04,22,-3.40
2020,03,15,04,23,-3.40
2020,03,15,04,24,-3.30
2020,03,15,04,25,-3.30
2020,03,15,04,26,-3.30
2020,03,15,04,27,-3.20
2020,03,15,04,28,-3.20
2020,03,15,04,29,-3.20
2020,03,15,04,30,-3.10
2020,03,15,04,31,-3.10
2020,03,15,04,32,-3.10
2020,03,15,04,33,-3.00
2020,03,15,04,34,-3.00
2020,03,15,04,35,-3.00
2020,03,15,04,36,-3.00
2020,03,15,04,37,-3.00
2020,03,15,04,38,-3.00
2020,03,15,04,39,-3.00
2020,03,15,04,40,-3.10
2020,03,15,04,41,-3.10
2020,03,15,04,42,-3.10
2020,03,15,04,43,-3.20
2020,03,15,04,44,-3.20
2020,03,15,04,45,-3.20
2020,03,15,04,46,-3.30
2020,03,15,04,47,-3.30
2020,03,15,04,48,-3.40
2020,03,15,04,49,-3.40
2020,03,15,04,50,-3.50
2020,03,15,04,51,-3.40
2020,03,15,04,52,-3.40
2020,03,15,04,53,-3.40
2020,03,15,04,54,-3.40
2020,03,15,04,55,-3.40
2020,03,15,04,56,-3.50
2020,03,15,04,57,-3.50
2020,03,15,04,58,-3.60
2020,03,15,04,59,-3.60
2020,03,15,05,00,-3.60
2020,03,15,05,01,-3.60
2020,03,15,05,02,-3.60
2020,03,15,05,03,-3.60
2020,03,15,05,04,-3.60
2020,03,15,05,05,-3.60
2020,03,15,05,06,-3.60
2020,03,15,05,07,-3.60
2020,03,15,05,08,-3.60
2020,03,15,05,09,-3.60
2020,03,15,05,10,-3.70
2020,03,15,05,11,-3.70
2020,03,15,05,12,-3.70
2020,03,15,05,13,-3.70
2020,03,15,05,14,-3.80
2020,03,15,05,15,-3.80
2020,03,15,05,16,-3.80
2020,03,15,05,17,-3.90
2020,03,15,05,18,-4.00
2020,03,15,05,19,-4.00
2020,03,15,05,20,-4.10
2020,03,15,05,21,-4.10
2020,03,15,05,22,-4.10
2020,03,15,05,23,-4.20
2020,03,15,05,24,-4.20
2020,03,15,05,25,-4.20
2020,03,15,05,26,-4.20
2020,03,15,05,27,-4.20
2020,03,15,05,28,-4.20
2020,03,15,05,29,-4.20
2020,03,15,05,30,-4.20
2020,03,15,05,31,-4.20
2020,03,15,05,32,-4.30
2020,03,15,05,33,-4.30
2020,03,15,05,34,-4.20
2020,03,15,05,35,-4.20
2020,03,15,05,36,-4.20
2020,03,15,05,37,-4.10
2020,03,15,05,38,-4.10
2020,03,15,05,39,-4.10
2020,03,15,05,40,-4.10
2020,03,15,05,41,-4.00
2020,03,15,05,42,-4.10
2020,03,15,05,43,-4.10
2020,03,15,05,44,-4.10
2020,03,15,05,45,-4.20
2020,03,15,05,46,-4.20
2020,03,15,05,47,-4.20
2020,03,15,05,48,-4.20
2020,03,15,05,49,-4.30
2020,03,15,05,50,-4.30
2020,03,15,05,51,-4.30
2020,03,15,05,52,-4.30
2020,03,15,05,53,-4.30
2020,03,15,05,54,-4.40
2020,03,15,05,55,-4.40
2020,03,15,05,56,-4.40
2020,03,15,05,57,-4.40
2020,03,15,05,58,-4.40
2020,03,15,05,59,-4.40
2020,03,15,06,00,-4.40
2020,03,15,06,01,-4.40
2020,03,15,06,02,-4.50
2020,03,15,06,03,-4.50
2020,03,15,06,04,-4.50
2020,03,15,06,05,-4.50
2020,03,15,06,06,-4.50
2020,03,15,06,07,-4.60
2020,03,15,06,08,-4.60
2020,03,15,06,09,-4.60
2020,03,15,06,10,-4.60
2020,03,15,06,11,-4.50
2020,03,15,06,12,-4.60
2020,03,15,06,13,-4.60
2020,03,15,06,14,-4.60
2020,03,15,06,15,-4.60
2020,03,15,06,16,-4.60
2020,03,15,06,17,-4.60
2020,03,15,06,18,-4.60
2020,03,15,06,19,-4.60
2020,03,15,06,20,-4.60
2020,03,15,06,21,-4.60
2020,03,15,06,22,-4.60
2020,03,15,06,23,-4.60
2020,03,15,06,24,-4.60
2020,03,15,06,25,-4.60
2020,03,15,06,26,-4.60
2020,03,15,06,27,-4.60
2020,03,15,06,28,-4.70
2020,03,15,06,29,-4.70
2020,03,15,06,30,-4.70
2020,03,15,06,31,-4.60
2020,03,15,06,32,-4.60
2020,03,15,06,33,-4.60
2020,03,15,06,34,-4.60
2020,03,15,06,35,-4.60
2020,03,15,06,36,-4.50
2020,03,15,06,37,-4.50
2020,03,15,06,38,-4.50
2020,03,15,06,39,-4.50
2020,03,15,06,40,-4.50
2020,03,15,06,41,-4.50
2020,03,15,06,42,-4.50
2020,03,15,06,43,-4.50
2020,03,15,06,44,-4.50
2020,03,15,06,45,-4.50
2020,03,15,06,46,-4.50
2020,03,15,06,47,-4.50
2020,03,15,06,48,-4.60
2020,03,15,06,49,-4.60
2020,03,15,06,50,-4.70
2020,03,15,06,51,-4.60
2020,03,15,06,52,-4.60
2020,03,15,06,53,-4.60
2020,03,15,06,54,-4.60
2020,03,15,06,55,-4.60
2020,03,15,06,56,-4.60
2020,03,15,06,57,-4.70
2020,03,15,06,58,-4.70
2020,03,15,06,59,-4.70
2020,03,15,07,00,-4.70
2020,03,15,07,01,-4.70
2020,03,15,07,02,-4.70
2020,03,15,07,03,-4.70
2020,03,15,07,04,-4.80
2020,03,15,07,05,-4.80
2020,03,15,07,06,-4.80
2020,03,15,07,07,-4.80
2020,03,15,07,08,-4.80
2020,03,15,07,09,-4.80
2020,03,15,07,10,-4.80
2020,03,15,07,11,-4.80
2020,03,15,07,12,-4.80
2020,03,15,07,13,-4.80
2020,03,15,07,14,-4.80
2020,03,15,07,15,-4.80
2020,03,15,07,16,-4.80
2020,03,15,07,17,-4.80
2020,03,15,07,18,-4.80
2020,03,15,07,19,-4.80
2020,03,15,07,20,-4.80
2020,03,15,07,21,-4.80
2020,03,15,07,22,-4.80
2020,03,15,07,23,-4.80
2020,03,15,07,24,-4.80
2020,03,15,07,25,-4.80
2020,03,15,07,26,-4.80
2020,03,15,07,27,-4.90
2020,03,15,07,28,-4.90
2020,03,15,07,29,-4.90
2020,03,15,07,30,-4.90
2020,03,15,07,31,-4.80
2020,03,15,07,32,-4.80
2020,03,15,07,33,-4.80
2020,03,15,07,34,-4.80
2020,03,15,07,35,-4.80
2020,03,15,07,36,-4.80
2020,03,15,07,37,-4.80
2020,03,15,07,38,-4.80
2020,03,15,07,39,-4.80
2020,03,15,07,40,-4.80
2020,03,15,07,41,-4.80
2020,03,15,07,42,-4.80
2020,03,15,07,43,-4.80
2020,03,15,07,44,-4.80
2020,03,15,07,45,-4.80
2020,03,15,07,46,-4.90
2020,03,15,07,47,-4.90
2020,03,15,07,48,-4.90
2020,03,15,07,49,-4.90
2020,03,15,07,50,-4.90
2020,03,15,07,51,-4.90
2020,03,15,07,52,-4.90
2020,03,15,07,53,-4.90
2020,03,15,07,54,-4.90
2020,03,15,07,55,-4.90
2020,03,15,07,56,-4.80
2020,03,15,07,57,-4.80
2020,03,15,07,58,-4.80
2020,03,15,07,59,-4.80
2020,03,15,08,00,-4.70
2020,03,15,08,01,-4.70
2020,03,15,08,02,-4.70
2020,03,15,08,03,-4.70
2020,03,15,08,04,-4.70
2020,03,15,08,05,-4.70
2020,03,15,08,06,-4.70
2020,03,15,08,07,-4.60
2020,03,15,08,08,-4.60
2020,03,15,08,09,-4.50
2020,03,15,08,10,-4.50
2020,03,15,08,11,-4.40
2020,03,15,08,12,-4.30
2020,03,15,08,13,-4.30
2020,03,15,08,14,-4.20
2020,03,15,08,15,-4.20
2020,03,15,08,16,-4.20
2020,03,15,08,17,-4.20
2020,03,15,08,18,-4.10
2020,03,15,08,19,-4.10
2020,03,15,08,20,-4.00
2020,03,15,08,21,-4.00
2020,03,15,08,22,-3.90
2020,03,15,08,23,-3.90
2020,03,15,08,24,-3.80
2020,03,15,08,25,-3.80
2020,03,15,08,26,-3.70
2020,03,15,08,27,-3.70
2020,03,15,08,28,-3.60
2020,03,15,08,29,-3.60
2020,03,15,08,30,-3.60
2020,03,15,08,31,-3.50
2020,03,15,08,32,-3.50
2020,03,15,08,33,-3.40
2020,03,15,08,34,-3.40
2020,03,15,08,35,-3.30
2020,03,15,08,36,-3.30
2020,03,15,08,37,-3.20
2020,03,15,08,38,-3.10
2020,03,15,08,39,-3.00
2020,03,15,08,40,-3.00
2020,03,15,08,41,-2.90
2020,03,15,08,42,-2.90
2020,03,15,08,43,-2.90
2020,03,15,08,44,-2.90
2020,03,15,08,45,-2.90
2020,03,15,08,46,-2.80
2020,03,15,08,47,-2.80
2020,03,15,08,48,-2.70
2020,03,15,08,49,-2.70
2020,03,15,08,50,-2.70
2020,03,15,08,51,-2.70
2020,03,15,08,52,-2.60
2020,03,15,08,53,-2.60
2020,03,15,08,54,-2.60
2020,03,15,08,55,-2.60
2020,03,15,08,56,-2.50
2020,03,15,08,57,-2.60
2020,03,15,08,58,-2.60
2020,03,15,08,59,-2.60
2020,03,15,09,00,-2.50
2020,03,15,09,01,-2.40
2020,03,15,09,02,-2.30
2020,03,15,09,03,-2.20
2020,03,15,09,04,-2.20
2020,03,15,09,05,-2.20
2020,03,15,09,06,-2.10
2020,03,15,09,07,-2.10
2020,03,15,09,08,-2.10
2020,03,15,09,09,-2.10
2020,03,15,09,10,-2.00
2020,03,15,09,11,-1.90
2020,03,15,09,12,-1.90
2020,03,15,09,13,-1.80
2020,03,15,09,14,-1.70
2020,03,15,09,15,-1.60
2020,03,15,09,16,-1.50
2020,03,15,09,17,-1.40
2020,03,15,09,18,-1.30
2020,03,15,09,19,-1.30
2020,03,15,09,20,-1.20
2020,03,15,09,21,-1.10
2020,03,15,09,22,-1.00
2020,03,15,09,23,-0.90
2020,03,15,09,24,-0.90
2020,03,15,09,25,-0.80
2020,03,15,09,26,-0.80
2020,03,15,09,27,-0.70
2020,03,15,09,28,-0.70
2020,03,15,09,29,-0.70
2020,03,15,09,30,-0.60
2020,03,15,09,31,-0.60
2020,03,15,09,32,-0.60
2020,03,15,09,33,-0.60
2020,03,15,09,34,-0.60
2020,03,15,09,35,-0.50
2020,03,15,09,36,-0.50
2020,03,15,09,37,-0.50
2020,03,15,09,38,-0.40
2020,03,15,09,39,-0.40
2020,03,15,09,40,-0.30
2020,03,15,09,41,-0.30
2020,03,15,09,42,-0.20
2020,03,15,09,43,-0.20
2020,03,15,09,44,-0.20
2020,03,15,09,45,-0.20
2020,03,15,09,46,-0.20
2020,03,15,09,47,-0.20
2020,03,15,09,48,-0.20
2020,03,15,09,49,-0.20
2020,03,15,09,50,-0.20
2020,03,15,09,51,-0.20
2020,03,15,09,52,-0.20
2020,03,15,09,53,-0.20
2020,03,15,09,54,-0.20
2020,03,15,09,55,-0.20
2020,03,15,09,56,-0.20
2020,03,15,09,57,-0.10
2020,03,15,09,58,-0.10
2020,03,15,09,59,-0.10
2020,03,15,10,00,-0.10
2020,03,15,10,01,0.00
2020,03,15,10,02,0.00
2020,03,15,10,03,0.00
2020,03,15,10,04,-0.10
2020,03,15,10,05,-0.10
2020,03,15,10,06,-0.10
2020,03,15,10,07,-0.10
2020,03,15,10,08,-0.20
2020,03,15,10,09,-0.20
2020,03,15,10,10,-0.10
2020,03,15,10,11,-0.10
2020,03,15,10,12,-0.10
2020,03,15,10,13,0.00
2020,03,15,10,14,0.00
2020,03,15,10,15,0.10
2020,03,15,10,16,0.10
2020,03,15,10,17,0.10
2020,03,15,10,18,0.10
2020,03,15,10,19,0.20
2020,03,15,10,20,0.20
2020,03,15,10,21,0.30
2020,03,15,10,22,0.30
2020,03,15,10,23,0.30
2020,03,15,10,24,0.30
2020,03,15,10,25,0.40
2020,03,15,10,26,0.50
2020,03,15,10,27,0.50
2020,03,15,10,28,0.60
2020,03,15,10,29,0.60
2020,03,15,10,30,0.60
2020,03,15,10,31,0.70
2020,03,15,10,32,0.70
2020,03,15,10,33,0.70
2020,03,15,10,34,0.70
2020,03,15,10,35,0.70
2020,03,15,10,36,0.70
2020,03,15,10,37,0.70
2020,03,15,10,38,0.70
2020,03,15,10,39,0.70
2020,03,15,10,40,0.70
2020,03,15,10,41,0.80
2020,03,15,10,42,0.80
2020,03,15,10,43,0.90
2020,03,15,10,44,1.00
2020,03,15,10,45,1.10
2020,03,15,10,46,1.20
2020,03,15,10,47,1.20
2020,03,15,10,48,1.40
2020,03,15,10,49,1.50
2020,03,15,10,50,1.60
2020,03,15,10,51,1.70
2020,03,15,10,52,1.80
2020,03,15,10,53,1.80
2020,03,15,10,54,1.80
2020,03,15,10,55,1.90
2020,03,15,10,56,1.90
2020,03,15,10,57,1.90
2020,03,15,10,58,1.80
2020,03,15,10,59,1.80
2020,03,15,11,00,1.70
2020,03,15,11,01,1.70
2020,03,15,11,02,1.60
2020,03,15,11,03,1.50
2020,03,15,11,04,1.50
2020,03,15,11,05,1.50
2020,03,15,11,06,1.50
2020,03,15,11,07,1.50
2020,03,15,11,08,1.60
2020,03,15,11,09,1.70
2020,03,15,11,10,1.70
2020,03,15,11,11,1.70
2020,03,15,11,12,1.70
2020,03,15,11,13,1.70
2020,03,15,11,14,1.70
2020,03,15,11,15,1.80
2020,03,15,11,16,1.80
2020,03,15,11,17,1.90
2020,03,15,11,18,1.90
2020,03,15,11,19,2.00
2020,03,15,11,20,2.20
2020,03,15,11,21,2.30
2020,03,15,11,22,2.40
2020,03,15,11,23,2.40
2020,03,15,11,24,2.50
2020,03,15,11,25,2.60
2020,03,15,11,26,2.70
2020,03,15,11,27,2.70
2020,03,15,11,28,2.70
2020,03,15,11,29,2.60
2020,03,15,11,30,2.60
2020,03,15,11,31,2.50
2020,03,15,11,32,2.40
2020,03,15,11,33,2.30
2020,03,15,11,34,2.20
2020,03,15,11,35,2.20
2020,03,15,11,36,2.10
2020,03,15,11,37,2.10
2020,03,15,11,38,2.10
2020,03,15,11,39,2.20
2020,03,15,11,40,2.20
2020,03,15,11,41,2.30
2020,03,15,11,42,2.50
2020,03,15,11,43,2.50
2020,03,15,11,44,2.60
2020,03,15,11,45,2.50
2020,03,15,11,46,2.50
2020,03,15,11,47,2.60
2020,03,15,11,48,2.60
2020,03,15,11,49,2.60
2020,03,15,11,50,2.60
2020,03,15,11,51,2.60
2020,03,15,11,52,2.60
2020,03,15,11,53,2.60
2020,03,15,11,54,2.60
2020,03,15,11,55,2.70
2020,03,15,11,56,2.80
2020,03,15,11,57,2.90
2020,03,15,11,58,3.00
2020,03,15,11,59,3.10
2020,03,15,12,00,3.20
2020,03,15,12,01,3.20
2020,03,15,12,02,3.30
2020,03,15,12,03,3.30
2020,03,15,12,04,3.40
2020,03,15,12,05,3.50
2020,03,15,12,06,3.60
2020,03,15,12,07,3.70
2020,03,15,12,08,3.70
2020,03,15,12,09,3.70
2020,03,15,12,10,3.80
2020,03,15,12,11,3.80
2020,03,15,12,12,3.90
2020,03,15,12,13,3.90
2020,03,15,12,14,4.00
2020,03,15,12,15,4.00
2020,03,15,12,16,4.00
2020,03,15,12,17,3.90
2020,03,15,12,18,3.90
2020,03,15,12,19,3.90
2020,03,15,12,20,3.90
2020,03,15,12,21,3.90
2020,03,15,12,22,3.90
2020,03,15,12,23,3.90
2020,03,15,12,24,3.90
2020,03,15,12,25,4.00
2020,03,15,12,26,4.00
2020,03,15,12,27,4.00
2020,03,15,12,28,4.00
2020,03,15,12,29,4.10
2020,03,15,12,30,4.10
2020,03,15,12,31,4.10
2020,03,15,12,32,4.10
2020,03,15,12,33,4.00
2020,03,15,12,34,3.90
2020,03,15,12,35,3.80
2020,03,15,12,36,3.80
2020,03,15,12,37,3.80
2020,03,15,12,38,3.80
2020,03,15,12,39,3.80
2020,03,15,12,40,3.80
2020,03,15,12,41,3.80
2020,03,15,12,42,3.80
2020,03,15,12,43,3.90
2020,03,15,12,44,3.90
2020,03,15,12,45,3.90
2020,03,15,12,46,3.90
2020,03,15,12,47,4.00
2020,03,15,12,48,4.00
2020,03,15,12,49,4.10
2020,03,15,12,50,4.10
2020,03,15,12,51,4.10
2020,03,15,12,52,4.10
2020,03,15,12,53,4.10
2020,03,15,12,54,4.00
2020,03,15,12,55,4.00
2020,03,15,12,56,3.90
2020,03,15,12,57,3.80
2020,03,15,12,58,3.80
2020,03,15,12,59,3.80
2020,03,15,13,00,3.90
2020,03,15,13,01,3.90
2020,03,15,13,02,3.90
2020,03,15,13,03,3.90
2020,03,15,13,04,4.00
2020,03,15,13,05,4.00
2020,03,15,13,06,4.10
2020,03,15,13,07,4.10
2020,03,15,13,08,4.20
2020,03,15,13,09,4.20
2020,03,15,13,10,4.30
2020,03,15,13,11,4.30
2020,03,15,13,12,4.40
2020,03,15,13,13,4.40
2020,03,15,13,14,4.30
2020,03,15,13,15,4.40
2020,03,15,13,16,4.40
2020,03,15,13,17,4.40
2020,03,15,13,18,4.40
2020,03,15,13,19,4.40
2020,03,15,13,20,4.50
2020,03,15,13,21,4.50
2020,03,15,13,22,4.60
2020,03,15,13,23,4.70
2020,03,15,13,24,4.70
2020,03,15,13,25,4.70
2020,03,15,13,26,4.70
2020,03,15,13,27,4.80
2020,03,15,13,28,4.80
2020,03,15,13,29,4.80
2020,03,15,13,30,4.80
2020,03,15,13,31,4.80
2020,03,15,13,32,4.90
2020,03,15,13,33,4.90
2020,03,15,13,34,5.00
2020,03,15,13,35,5.10
2020,03,15,13,36,5.00
2020,03,15,13,37,5.00
2020,03,15,13,38,4.90
2020,03,15,13,39,4.80
2020,03,15,13,40,4.80
2020,03,15,13,41,4.90
2020,03,15,13,42,4.90
2020,03,15,13,43,4.90
2020,03,15,13,44,5.00
2020,03,15,13,45,5.10
2020,03,15,13,46,5.10
2020,03,15,13,47,5.20
2020,03,15,13,48,5.10
2020,03,15,13,49,5.00
2020,03,15,13,50,4.90
2020,03,15,13,51,4.90
2020,03,15,13,52,4.90
2020,03,15,13,53,5.00
2020,03,15,13,54,5.10
2020,03,15,13,55,5.20
2020,03,15,13,56,5.20
2020,03,15,13,57,5.30
2020,03,15,13,58,5.30
2020,03,15,13,59,5.40
2020,03,15,14,00,5.40
2020,03,15,14,01,5.30
2020,03,15,14,02,5.30
2020,03,15,14,03,5.30
2020,03,15,14,04,5.30
2020,03,15,14,05,5.30
2020,03,15,14,06,5.30
2020,03,15,14,07,5.30
2020,03,15,14,08,5.30
2020,03,15,14,09,5.40
2020,03,15,14,10,5.50
2020,03,15,14,11,5.60
2020,03,15,14,12,5.70
2020,03,15,14,13,5.70
2020,03,15,14,14,5.70
2020,03,15,14,15,5.70
2020,03,15,14,16,5.70
2020,03,15,14,17,5.70
2020,03,15,14,18,5.70
2020,03,15,14,19,5.80
2020,03,15,14,20,5.90
2020,03,15,14,21,6.00
2020,03,15,14,22,6.00
2020,03,15,14,23,5.90
2020,03,15,14,24,5.90
2020,03,15,14,25,5.80
2020,03,15,14,26,5.80
2020,03,15,14,27,5.70
2020,03,15,14,28,5.70
2020,03,15,14,29,5.70
2020,03,15,14,30,5.70
2020,03,15,14,31,5.60
2020,03,15,14,32,5.60
2020,03,15,14,33,5.60
2020,03,15,14,34,5.60
2020,03,15,14,35,5.60
2020,03,15,14,36,5.70
2020,03,15,14,37,5.70
2020,03,15,14,38,5.70
2020,03,15,14,39,5.80
2020,03,15,14,40,5.90
2020,03,15,14,41,6.00
2020,03,15,14,42,6.10
2020,03,15,14,43,6.20
2020,03,15,14,44,6.30
2020,03,15,14,45,6.30
2020,03,15,14,46,6.40
2020,03,15,14,47,6.50
2020,03,15,14,48,6.50
2020,03,15,14,49,6.60
2020,03,15,14,50,6.60
2020,03,15,14,51,6.70
2020,03,15,14,52,6.70
2020,03,15,14,53,6.80
2020,03,15,14,54,6.80
2020,03,15,14,55,6.90
2020,03,15,14,56,6.90
2020,03,15,14,57,7.00
2020,03,15,14,58,7.10
2020,03,15,14,59,7.00
2020,03,15,15,00,6.90
2020,03,15,15,01,6.70
2020,03,15,15,02,6.60
2020,03,15,15,03,6.60
2020,03,15,15,04,6.50
2020,03,15,15,05,6.40
2020,03,15,15,06,6.40
2020,03,15,15,07,6.40
2020,03,15,15,08,6.50
2020,03,15,15,09,6.50
2020,03,15,15,10,6.50
2020,03,15,15,11,6.50
2020,03,15,15,12,6.50
2020,03,15,15,13,6.50
2020,03,15,15,14,6.60
2020,03,15,15,15,6.60
2020,03,15,15,16,6.60
2020,03,15,15,17,6.70
2020,03,15,15,18,6.70
2020,03,15,15,19,6.80
2020,03,15,15,20,6.80
2020,03,15,15,21,6.80
2020,03,15,15,22,6.90
2020,03,15,15,23,7.00
2020,03,15,15,24,7.00
2020,03,15,15,25,7.10
2020,03,15,15,26,7.10
2020,03,15,15,27,7.20
2020,03,15,15,28,7.20
2020,03,15,15,29,7.20
2020,03,15,15,30,7.10
2020,03,15,15,31,7.10
2020,03,15,15,32,7.00
2020,03,15,15,33,7.00
2020,03,15,15,34,6.90
2020,03,15,15,35,6.80
2020,03,15,15,36,6.80
2020,03,15,15,37,6.90
2020,03,15,15,38,6.90
2020,03,15,15,39,6.90
2020,03,15,15,40,6.90
2020,03,15,15,41,6.90
2020,03,15,15,42,6.90
2020,03,15,15,43,7.00
2020,03,15,15,44,7.00
2020,03,15,15,45,7.10
2020,03,15,15,46,7.10
2020,03,15,15,47,7.10
2020,03,15,15,48,7.10
2020,03,15,15,49,7.00
2020,03,15,15,50,7.00
2020,03,15,15,51,7.10
2020,03,15,15,52,7.20
2020,03,15,15,53,7.30
2020,03,15,15,54,7.30
2020,03,15,15,55,7.30
2020,03,15,15,56,7.30
2020,03,15,15,57,7.20
2020,03,15,15,58,7.20
2020,03,15,15,59,7.20
2020,03,15,16,00,7.20
2020,03,15,16,01,7.20
2020,03,15,16,02,7.20
2020,03,15,16,03,7.20
2020,03,15,16,04,7.20
2020,03,15,16,05,7.20
2020,03,15,16,06,7.20
2020,03,15,16,07,7.30
2020,03,15,16,08,7.30
2020,03,15,16,09,7.40
2020,03,15,16,10,7.40
2020,03,15,16,11,7.40
2020,03,15,16,12,7.50
2020,03,15,16,13,7.70
2020,03,15,16,14,7.80
2020,03,15,16,15,7.90
2020,03,15,16,16,7.90
2020,03,15,16,17,7.90
2020,03,15,16,18,7.90
2020,03,15,16,19,7.80
2020,03,15,16,20,7.70
2020,03,15,16,21,7.70
2020,03,15,16,22,7.70
2020,03,15,16,23,7.60
2020,03,15,16,24,7.60
2020,03,15,16,25,7.60
2020,03,15,16,26,7.60
2020,03,15,16,27,7.60
2020,03,15,16,28,7.70
2020,03,15,16,29,7.60
2020,03,15,16,30,7.50
2020,03,15,16,31,7.50
2020,03,15,16,32,7.40
2020,03,15,16,33,7.30
2020,03,15,16,34,7.30
2020,03,15,16,35,7.30
2020,03,15,16,36,7.40
2020,03,15,16,37,7.40
2020,03,15,16,38,7.50
2020,03,15,16,39,7.60
2020,03,15,16,40,7.60
2020,03,15,16,41,7.70
2020,03,15,16,42,7.70
2020,03,15,16,43,7.70
2020,03,15,16,44,7.70
2020,03,15,16,45,7.60
2020,03,15,16,46,7.60
2020,03,15,16,47,7.60
2020,03,15,16,48,7.60
2020,03,15,16,49,7.60
2020,03,15,16,50,7.60
2020,03,15,16,51,7.60
2020,03,15,16,52,7.60
2020,03,15,16,53,7.70
2020,03,15,16,54,7.70
2020,03,15,16,55,7.80
2020,03,15,16,56,7.90
2020,03,15,16,57,7.90
2020,03,15,16,58,7.90
2020,03,15,16,59,7.90
2020,03,15,17,00,7.90
2020,03,15,17,01,8.00
2020,03,15,17,02,8.00
2020,03,15,17,03,8.10
2020,03,15,17,04,8.10
2020,03,15,17,05,8.20
2020,03,15,17,06,8.20
2020,03,15,17,07,8.10
2020,03,15,17,08,8.10
2020,03,15,17,09,8.10
2020,03,15,17,10,8.00
2020,03,15,17,11,8.10
2020,03,15,17,12,8.10
2020,03,15,17,13,8.20
2020,03,15,17,14,8.20
2020,03,15,17,15,8.20
2020,03,15,17,16,8.20
2020,03,15,17,17,8.20
2020,03,15,17,18,8.10
2020,03,15,17,19,8.10
2020,03,15,17,20,8.00
2020,03,15,17,21,8.00
2020,03,15,17,22,8.00
2020,03,15,17,23,8.00
2020,03,15,17,24,7.90
2020,03,15,17,25,8.00
2020,03,15,17,26,8.00
2020,03,15,17,27,8.00
2020,03,15,17,28,8.00
2020,03,15,17,29,8.10
2020,03,15,17,30,8.10
2020,03,15,17,31,8.10
2020,03,15,17,32,8.10
2020,03,15,17,33,8.10
2020,03,15,17,34,8.10
2020,03,15,17,35,8.20
2020,03,15,17,36,8.10
2020,03,15,17,37,8.10
2020,03,15,17,38,8.10
2020,03,15,17,39,8.20